Tracking 33195 objects as of 8-Feb-2026
HD Live streaming from Space Station
objects crossing your sky now

STARLINK-36094

Track STARLINK-36094 now!
10-day predictions
STARLINK-36094 is classified as:


NORAD ID: 66851
Int'l Code: 2025-281D
Perigee: 488.9 km
Apogee: 491.3 km
Inclination: 43.0 °
Period: 94.3 minutes
Semi major axis: 6861 km
RCS: Unknown
Launch date: December 2, 2025
Source: United States (US)
Launch site: AIR FORCE EASTERN TEST RANGE (AFETR)
Your satellite tracking list
Your tracking list is empty




NASA's NSSDC Master Catalog

Two Line Element Set (TLE):
1 66851U 25281D   26038.65824951  .00036029  00000-0  13112-2 0  9993
2 66851  42.9998 152.9844 0001681 273.6058  86.4601 15.27610077 11596
Source of the keplerian elements: AFSPC